ONEWEB-0244 (48776 NORAD) Tracking and Keplerian Element Data

This shows tracking and keplerian element data for the satellite.

Feedback or suggestion? Click here.




ElementValue
Catalog48776
NameONEWEB-0244
Epoch Orbit175
Epoch Day170.58334491
Epoch Year2021
RAAN268.868
Inclination87.4012
Eccentricity0.0006801
Argument of Perigee161.8912
Mean Anonmoly7.9483
Mean Motion15.40685105
Decay Rate0.00036388
L11 48776U 21045K 21170.58334491 .00036388 00000-0 88816-3 0 9994
L22 48776 87.4012 268.8680 0006801 161.8912 7.9483 15.40685105 1756

Live tracking and technical data element details for ONEWEB-0244 (NORAD 48776). ONEWEB-0244 can be tracked NOW for your location showing map with azimuth and elevation plus other details from your city location.

Track the satellite on the map from your city or location and see movement details for azimuth, elevation, latitude, longitude, range, height, and movement on the map or in text.







IsCatalogInMostPopularTable: catalog: 48776, numindb: 6
Update: records affected: 1



GetName: 48776 ONEWEB-0244

Hit Count: updated at: Mon, 21 Jun 2021 04:52:12 GMT